�������l�o���
Date,Time,MP-1(��Sv/h),MP-2(��Sv/h),MP-3(��Sv/h),MP-4(��Sv/h),MP-5(��Sv/h),MP-6(��Sv/h),MP-7(��Sv/h),MP-8(��Sv/h),����,����(m/s),���J
2017/03/07,00:00,1.054,1.724,1.170,2.039,1.430,0.558,1.024,0.948,�k��,12.7,��
2017/03/07,00:10,1.055,1.727,1.171,2.038,1.426,0.557,1.023,0.947,�k��,14.1,��
2017/03/07,00:20,1.054,1.723,1.169,2.042,1.429,0.557,1.025,0.947,�k��,14.3,��
2017/03/07,00:30,1.054,1.726,1.168,2.042,1.427,0.558,1.023,0.947,�k��,15.2,��
2017/03/07,00:40,1.052,1.725,1.169,2.039,1.429,0.559,1.021,0.948,�k��,14.7,��
2017/03/07,00:50,1.053,1.726,1.171,2.041,1.426,0.558,1.024,0.950,�k��,14.7,��
2017/03/07,01:00,1.053,1.725,1.168,2.041,1.426,0.556,1.021,0.949,�k��,13.6,��
2017/03/07,01:10,1.053,1.724,1.166,2.038,1.429,0.554,1.024,0.947,�k��,14.1,��
2017/03/07,01:20,1.053,1.725,1.167,2.042,1.429,0.556,1.022,0.948,�k��,13.8,��
2017/03/07,01:30,1.055,1.726,1.168,2.041,1.430,0.556,1.020,0.947,�k�k��,17.1,��
2017/03/07,01:40,1.052,1.725,1.168,2.042,1.426,0.555,1.023,0.948,�k��,16.4,��
2017/03/07,01:50,1.054,1.722,1.169,2.041,1.427,0.555,1.021,0.947,�k�k��,14.9,��
2017/03/07,02:00,1.053,1.726,1.167,2.042,1.428,0.555,1.022,0.947,�k��,13.9,��
2017/03/07,02:10,1.053,1.725,1.169,2.041,1.427,0.556,1.021,0.948,�k��,14.7,��
2017/03/07,02:20,1.051,1.727,1.167,2.042,1.431,0.556,1.023,0.948,�k�k��,12.1,��
2017/03/07,02:30,1.053,1.725,1.171,2.045,1.430,0.555,1.021,0.947,�k��,13.6,��
2017/03/07,02:40,1.052,1.729,1.169,2.041,1.428,0.555,1.021,0.948,�k��,10.8,��
2017/03/07,02:50,1.051,1.726,1.170,2.041,1.430,0.554,1.024,0.947,�k�k��,10.4,��
2017/03/07,03:00,1.050,1.726,1.173,2.042,1.429,0.555,1.021,0.948,�k�k��,11.3,��
2017/03/07,03:10,1.052,1.724,1.170,2.042,1.427,0.553,1.021,0.948,�k�k��,11.9,��
2017/03/07,03:20,1.051,1.727,1.171,2.041,1.429,0.556,1.021,0.947,�k��,10.7,��
2017/03/07,03:30,1.050,1.723,1.168,2.041,1.427,0.557,1.019,0.947,�k��,11.6,��
2017/03/07,03:40,1.051,1.727,1.169,2.042,1.429,0.556,1.022,0.948,�k�k��,11.3,��
2017/03/07,03:50,1.051,1.727,1.171,2.039,1.429,0.556,1.024,0.947,�k�k��,10.0,��
2017/03/07,04:00,1.052,1.727,1.170,2.043,1.428,0.556,1.023,0.948,�k�k��,9.2,��
2017/03/07,04:10,1.049,1.726,1.170,2.043,1.429,0.556,1.022,0.948,�k�k��,10.1,��
2017/03/07,04:20,1.051,1.725,1.169,2.040,1.429,0.555,1.021,0.947,�k��,11.9,��
2017/03/07,04:30,1.050,1.725,1.171,2.043,1.429,0.556,1.024,0.948,�k��,10.8,��
2017/03/07,04:40,1.050,1.726,1.169,2.044,1.426,0.556,1.023,0.949,�k��,8.3,��
2017/03/07,04:50,1.053,1.727,1.171,2.043,1.429,0.554,1.021,0.947,�k��,8.4,��
2017/03/07,05:00,1.053,1.726,1.170,2.042,1.430,0.556,1.021,0.948,�k��,6.3,��
2017/03/07,05:10,1.048,1.724,1.171,2.041,1.425,0.557,1.022,0.947,�k�k��,6.0,��
2017/03/07,05:20,1.052,1.727,1.168,2.041,1.426,0.556,1.019,0.949,�k��,7.8,��
2017/03/07,05:30,1.052,1.725,1.170,2.042,1.427,0.555,1.020,0.947,�k��,6.2,��
2017/03/07,05:40,1.053,1.725,1.170,2.043,1.427,0.555,1.022,0.949,�k��,5.9,��
2017/03/07,05:50,1.051,1.727,1.168,2.042,1.426,0.555,1.020,0.948,�k��,7.1,��
2017/03/07,06:00,1.053,1.724,1.169,2.041,1.430,0.555,1.023,0.949,�k�k��,6.6,��
2017/03/07,06:10,1.052,1.727,1.168,2.040,1.425,0.555,1.020,0.946,�k��,7.6,��
2017/03/07,06:20,1.051,1.724,1.170,2.044,1.428,0.554,1.021,0.946,�k�k��,6.8,��
2017/03/07,06:30,1.050,1.724,1.170,2.041,1.428,0.555,1.021,0.948,�k�k��,5.0,��
2017/03/07,06:40,1.051,1.727,1.170,2.043,1.427,0.554,1.021,0.948,�k�k��,5.9,��
2017/03/07,06:50,1.051,1.725,1.168,2.044,1.426,0.556,1.020,0.947,�k�k��,5.9,��
2017/03/07,07:00,1.052,1.726,1.170,2.041,1.428,0.555,1.018,0.947,�k�k��,5.7,��
2017/03/07,07:10,1.052,1.727,1.167,2.041,1.428,0.557,1.021,0.949,�k�k��,5.4,��
2017/03/07,07:20,1.053,1.727,1.170,2.044,1.429,0.555,1.023,0.947,�k�k��,3.9,��
2017/03/07,07:30,1.052,1.729,1.170,2.045,1.430,0.557,1.020,0.948,�k�k��,3.7,��
2017/03/07,07:40,1.051,1.729,1.170,2.043,1.429,0.556,1.021,0.946,�k,3.9,��
2017/03/07,07:50,1.055,1.729,1.168,2.044,1.430,0.555,1.022,0.946,�k,2.6,��
2017/03/07,08:00,1.052,1.727,1.170,2.045,1.428,0.555,1.021,0.948,�k,3.6,��
2017/03/07,08:10,1.051,1.728,1.171,2.041,1.428,0.557,1.021,0.948,�k�k��,2.6,��
2017/03/07,08:20,1.051,1.722,1.170,2.044,1.426,0.556,1.022,0.947,�k�k��,2.0,��
2017/03/07,08:30,1.052,1.724,1.170,2.046,1.429,0.556,1.021,0.948,�k�k��,2.2,��
2017/03/07,08:40,1.050,1.727,1.167,2.045,1.430,0.557,1.023,0.947,�k��,2.0,��
2017/03/07,08:50,1.053,1.727,1.167,2.044,1.429,0.556,1.020,0.947,�k��,2.2,��
2017/03/07,09:00,1.053,1.730,1.170,2.040,1.429,0.556,1.018,0.947,���k��,1.5,��
2017/03/07,09:10,1.053,1.728,1.172,2.047,1.430,0.555,1.023,0.950,�k�k��,1.7,��
2017/03/07,09:20,1.052,1.732,1.171,2.049,1.429,0.556,1.021,0.948,��쓌,1.4,��
2017/03/07,09:30,1.054,1.732,1.171,2.046,1.431,0.556,1.021,0.948,��,1.5,��
2017/03/07,09:40,1.053,1.731,1.173,2.046,1.432,0.555,1.020,0.948,�k��,4.8,��
2017/03/07,09:50,1.053,1.735,1.171,2.045,1.433,0.557,1.021,0.947,�k��,8.9,��
2017/03/07,10:00,1.052,1.733,1.172,2.048,1.429,0.557,1.021,0.948,���k��,9.2,��
2017/03/07,10:10,1.056,1.733,1.174,2.047,1.429,0.556,1.019,0.949,���k��,7.8,��
2017/03/07,10:20,1.055,1.732,1.174,2.045,1.432,0.558,1.020,0.949,���k��,10.2,��
2017/03/07,10:30,1.055,1.733,1.172,2.048,1.430,0.556,1.022,0.949,���k��,11.3,��
2017/03/07,10:40,1.056,1.731,1.172,2.047,1.433,0.558,1.022,0.949,�k��,14.1,��
2017/03/07,10:50,1.057,1.732,1.171,2.048,1.434,0.558,1.024,0.949,��,5.9,��
2017/03/07,11:00,1.056,1.732,1.171,2.049,1.434,0.558,1.022,0.950,��,6.6,��
2017/03/07,11:10,1.057,1.732,1.172,2.050,1.435,0.558,1.022,0.950,���k��,5.7,��
2017/03/07,11:20,1.057,1.732,1.173,2.050,1.433,0.559,1.025,0.950,��,7.0,��
2017/03/07,11:30,1.057,1.735,1.176,2.053,1.436,0.559,1.020,0.951,��,7.3,��
2017/03/07,11:40,1.059,1.731,1.174,2.052,1.436,0.560,1.019,0.950,���k��,9.0,��
2017/03/07,11:50,1.057,1.733,1.175,2.052,1.434,0.557,1.017,0.951,���k��,6.5,��
2017/03/07,12:00,1.060,1.730,1.175,2.054,1.434,0.559,1.018,0.951,��,6.9,��
2017/03/07,12:10,1.059,1.731,1.175,2.052,1.436,0.559,1.018,0.950,���k��,6.7,��
2017/03/07,12:20,1.058,1.735,1.175,2.053,1.434,0.560,1.017,0.951,���k��,7.1,��
2017/03/07,12:30,1.058,1.732,1.175,2.054,1.434,0.559,1.017,0.951,��,6.8,��
2017/03/07,12:40,1.059,1.732,1.178,2.053,1.434,0.558,1.018,0.952,���쐼,7.6,��
2017/03/07,12:50,1.059,1.733,1.180,2.055,1.435,0.560,1.021,0.950,�쐼,4.6,��
2017/03/07,13:00,1.058,1.733,1.182,2.056,1.433,0.560,1.023,0.950,��쐼,5.8,��
2017/03/07,13:10,1.057,1.733,1.180,2.054,1.433,0.559,1.024,0.948,��,8.3,��
2017/03/07,13:20,1.059,1.732,1.180,2.056,1.436,0.560,1.021,0.947,��쓌,5.4,��
2017/03/07,13:30,1.058,1.733,1.178,2.052,1.434,0.558,1.020,0.947,��쓌,7.0,��
2017/03/07,13:40,1.057,1.732,1.176,2.054,1.434,0.558,1.021,0.948,��쓌,7.8,��
2017/03/07,13:50,1.060,1.733,1.177,2.053,1.435,0.559,1.017,0.952,��쓌,8.1,��
2017/03/07,14:00,1.060,1.736,1.176,2.052,1.435,0.560,1.020,0.950,��,6.8,��
2017/03/07,14:10,1.058,1.733,1.178,2.054,1.438,0.560,1.020,0.950,��,7.8,��
2017/03/07,14:20,1.060,1.731,1.179,2.052,1.436,0.560,1.021,0.950,��,7.9,��
2017/03/07,14:30,1.059,1.734,1.177,2.050,1.438,0.558,1.023,0.950,��쓌,8.5,�L
2017/03/07,14:40,1.062,1.731,1.178,2.054,1.438,0.560,1.019,0.948,��쓌,10.0,�L
2017/03/07,14:50,1.058,1.735,1.169,2.053,1.438,0.558,1.021,0.946,��쓌,8.6,�L
2017/03/07,15:00,1.059,1.734,1.177,2.053,1.436,0.559,1.018,0.949,��,7.8,�L
2017/03/07,15:10,1.057,1.736,1.176,2.054,1.436,0.560,1.021,0.949,��,6.3,��
2017/03/07,15:20,1.058,1.736,1.173,2.054,1.440,0.561,1.022,0.949,��,8.2,��
2017/03/07,15:30,1.058,1.739,1.176,2.051,1.437,0.561,1.023,0.948,��,8.2,��
2017/03/07,15:40,1.056,1.735,1.175,2.052,1.439,0.561,1.019,0.951,��쐼,8.0,��
2017/03/07,15:50,1.056,1.738,1.176,2.053,1.440,0.561,1.021,0.951,��쐼,7.6,��
2017/03/07,16:00,1.055,1.735,1.175,2.053,1.434,0.561,1.022,0.947,��,7.8,��
2017/03/07,16:10,1.056,1.737,1.175,2.051,1.438,0.561,1.020,0.949,��,5.7,��
2017/03/07,16:20,1.057,1.735,1.174,2.050,1.437,0.559,1.023,0.948,��쐼,5.7,��
2017/03/07,16:30,1.055,1.736,1.175,2.049,1.437,0.560,1.024,0.949,��쐼,7.1,��
2017/03/07,16:40,1.054,1.736,1.174,2.054,1.434,0.560,1.024,0.948,��,5.2,��
2017/03/07,16:50,1.055,1.737,1.173,2.049,1.434,0.561,1.025,0.948,�쐼,1.7,��
2017/03/07,17:00,1.058,1.735,1.176,2.049,1.435,0.559,1.023,0.947,�k,2.6,��
2017/03/07,17:10,1.057,1.742,1.174,2.052,1.440,0.560,1.024,0.948,�k�k��,3.3,��
2017/03/07,17:20,1.058,1.738,1.174,2.053,1.436,0.560,1.023,0.948,�k��,1.9,��
2017/03/07,17:30,1.059,1.735,1.175,2.051,1.434,0.560,1.022,0.948,�k��,2.3,��
2017/03/07,17:40,1.057,1.735,1.174,2.051,1.440,0.560,1.025,0.946,�k��,2.2,��
2017/03/07,17:50,1.056,1.734,1.174,2.050,1.434,0.560,1.022,0.948,�k�k��,2.3,��
2017/03/07,18:00,1.057,1.735,1.175,2.051,1.435,0.558,1.024,0.946,�k�k��,2.9,��
2017/03/07,18:10,1.055,1.733,1.173,2.048,1.433,0.558,1.020,0.949,�k�k��,3.7,��
2017/03/07,18:20,1.056,1.735,1.173,2.050,1.434,0.558,1.021,0.947,�k�k��,5.6,��
2017/03/07,18:30,1.057,1.733,1.174,2.047,1.439,0.557,1.021,0.948,�k��,5.7,��
2017/03/07,18:40,1.056,1.731,1.174,2.046,1.435,0.559,1.023,0.947,�k��,5.9,��
2017/03/07,18:50,1.058,1.734,1.174,2.049,1.434,0.557,1.022,0.948,�k��,6.1,��
2017/03/07,19:00,1.056,1.732,1.174,2.048,1.435,0.556,1.021,0.946,���k��,6.1,��
2017/03/07,19:10,1.056,1.734,1.171,2.048,1.435,0.556,1.023,0.947,���k��,4.7,��
2017/03/07,19:20,1.055,1.734,1.173,2.050,1.435,0.556,1.022,0.946,�k��,3.1,��
2017/03/07,19:30,1.053,1.733,1.172,2.048,1.433,0.559,1.022,0.946,�k��,3.6,��
2017/03/07,19:40,1.054,1.731,1.171,2.047,1.432,0.558,1.020,0.947,�k��,3.7,��
2017/03/07,19:50,1.054,1.732,1.173,2.046,1.434,0.556,1.022,0.946,�k��,4.6,��
2017/03/07,20:00,1.053,1.732,1.171,2.046,1.434,0.556,1.020,0.947,���k��,5.5,��
2017/03/07,20:10,1.054,1.732,1.172,2.046,1.432,0.557,1.021,0.948,��,3.1,��
2017/03/07,20:20,1.056,1.732,1.171,2.047,1.430,0.556,1.019,0.946,���쐼,2.8,��
2017/03/07,20:30,1.057,1.733,1.171,2.046,1.431,0.557,1.019,0.947,���쐼,3.2,��
2017/03/07,20:40,1.055,1.729,1.172,2.046,1.432,0.555,1.021,0.947,���쐼,4.3,��
2017/03/07,20:50,1.054,1.728,1.171,2.049,1.431,0.555,1.019,0.945,�쐼,3.1,��
2017/03/07,21:00,1.053,1.730,1.171,2.044,1.433,0.555,1.018,0.947,���쐼,2.9,��
2017/03/07,21:10,1.056,1.733,1.170,2.045,1.432,0.556,1.021,0.945,���k��,4.5,��
2017/03/07,21:20,1.054,1.732,1.170,2.046,1.429,0.555,1.020,0.946,���k��,7.6,��
2017/03/07,21:30,1.054,1.733,1.172,2.046,1.433,0.556,1.018,0.948,���k��,7.9,��
2017/03/07,21:40,1.054,1.733,1.170,2.049,1.432,0.557,1.021,0.947,��,12.7,��
2017/03/07,21:50,1.054,1.733,1.173,2.047,1.436,0.556,1.020,0.945,��,12.8,��
2017/03/07,22:00,1.054,1.731,1.170,2.049,1.436,0.556,1.021,0.947,��,9.5,��
2017/03/07,22:10,1.054,1.728,1.168,2.050,1.432,0.555,1.021,0.948,���쐼,8.7,��
2017/03/07,22:20,1.052,1.732,1.171,2.045,1.432,0.555,1.021,0.946,���쐼,6.8,��
2017/03/07,22:30,1.054,1.731,1.168,2.049,1.432,0.553,1.023,0.946,���쐼,7.1,��
2017/03/07,22:40,1.053,1.731,1.169,2.052,1.434,0.554,1.022,0.947,���쐼,6.7,��
2017/03/07,22:50,1.054,1.732,1.170,2.049,1.433,0.557,1.020,0.948,���쐼,5.5,��
2017/03/07,23:00,1.054,1.732,1.171,2.047,1.431,0.556,1.020,0.948,���쐼,4.6,��
2017/03/07,23:10,1.052,1.730,1.172,2.047,1.429,0.556,1.021,0.949,���쐼,4.2,��
2017/03/07,23:20,1.053,1.730,1.172,2.049,1.433,0.557,1.019,0.946,���쐼,4.4,��
2017/03/07,23:30,1.053,1.731,1.173,2.048,1.433,0.556,1.020,0.946,���쐼,3.3,��
2017/03/07,23:40,1.052,1.731,1.169,2.049,1.433,0.556,1.021,0.949,�쐼,2.8,��
2017/03/07,23:50,1.052,1.730,1.168,2.045,1.433,0.556,1.020,0.947,�쐼,3.1,��
